Fort Knox, KY

6:15 PM EDT on April 22, 2018 (GMT -0400)
Godman Army Air Field

Weather History for KFTK - November, 2012

Change the Weather History Date:

Sunday, November 11, 2012

  Actual Average Record
Temperature  
Mean Temperature 59 °F -  
Max Temperature 68 °F 54 °F 74 °F (2010)
Min Temperature 50 °F 36 °F 24 °F (1996)
Degree Days  
Heating Degree Days 6    
Growing Degree Days 9 (Base 50)    
Moisture  
Dew Point 42 °F    
Average Humidity 52    
Maximum Humidity 64    
Minimum Humidity 39    
Precipitation  
Precipitation 0.00 in - - ()
Sea Level Pressure  
Sea Level Pressure 30.15 in    
Wind  
Wind Speed 12 mph (SSE)    
Max Wind Speed 22 mph    
Max Gust Speed 33 mph    
Visibility 10 miles    
Events      
Averages and records for this station are not official NWS values.
T = Trace of Precipitation, MM = Missing Value Source: NWS Daily Summary

Daily Weather History Graph

Daily Weather History Graph

Search for Another Location

Airport or City:

Astronomy

Nov. 11, 2012 Rise Set
Actual Time 7:20 AM EST 5:34 PM EST
Civil Twilight 6:52 AM EST 6:02 PM EST
Nautical Twilight 6:21 AM EST 6:34 PM EST
Astronomical Twilight 5:50 AM EST 7:05 PM EST
Moon 4:36 AM EST (11/11) 3:56 PM EST (11/11)
Length of Visible Light 11h 10m
Length of Day
10h 14m
Waning Crescent, 7% of the Moon is Illuminated
Nov 11
Waning Crescent
Nov 13
New
Nov 20
First Quarter
Nov 28
Full
Dec 6
Last Quarter

Hourly Weather History & Observations

Time (EST) Temp. Dew Point Humidity Pressure Visibility Wind Dir Wind Speed Gust Speed Precip Events Conditions
12:55 AM 53.6 °F 40.1 °F 60% 30.18 in 10.0 mi South 8.1 mph - N/A   Clear
1:55 AM 52.3 °F 38.8 °F 60% 30.17 in 10.0 mi South 9.2 mph - N/A   Clear
2:55 AM 53.6 °F 38.5 °F 57% 30.16 in 10.0 mi South 10.4 mph - N/A   Scattered Clouds
3:55 AM 50.9 °F 38.3 °F 62% 30.18 in 10.0 mi South 8.1 mph - N/A   Scattered Clouds
4:55 AM 50.4 °F 37.9 °F 62% 30.19 in 10.0 mi SSE 8.1 mph - N/A   Scattered Clouds
5:55 AM 51.6 °F 39.0 °F 62% 30.21 in 10.0 mi South 9.2 mph - N/A   Mostly Cloudy
6:55 AM 50.5 °F 38.7 °F 64% 30.22 in 10.0 mi SSE 9.2 mph - N/A   Clear
7:55 AM 53.2 °F 38.3 °F 57% 30.22 in 10.0 mi South 12.7 mph - N/A   Clear
8:55 AM 57.0 °F 38.1 °F 49% 30.24 in 10.0 mi South 13.8 mph - N/A   Clear
9:55 AM 58.5 °F 39.7 °F 50% 30.23 in 10.0 mi South 12.7 mph - N/A   Clear
10:55 AM 65.1 °F 42.6 °F 44% 30.22 in 10.0 mi South 17.3 mph 23.0 mph N/A   Clear
11:55 AM 68.7 °F 45.3 °F 43% 30.19 in 10.0 mi SSE 17.3 mph 33.4 mph N/A   Clear
12:55 PM 67.3 °F 43.3 °F 42% 30.16 in 10.0 mi South 18.4 mph 24.2 mph N/A   Clear
1:55 PM 68.4 °F 43.0 °F 40% 30.14 in 10.0 mi South 17.3 mph 27.6 mph N/A   Mostly Cloudy
2:55 PM 67.6 °F 41.7 °F 39% 30.12 in 10.0 mi SSE 15.0 mph - N/A   Scattered Clouds
3:55 PM 66.4 °F 41.0 °F 40% 30.11 in 10.0 mi South 17.3 mph 23.0 mph N/A   Clear
4:55 PM 65.7 °F 41.5 °F 41% 30.10 in 10.0 mi SSE 11.5 mph - N/A   Clear
5:55 PM 64.0 °F 40.5 °F 42% 30.08 in 10.0 mi SE 12.7 mph - N/A   Partly Cloudy
6:55 PM 64.0 °F 41.7 °F 44% 30.09 in 10.0 mi SSE 15.0 mph - N/A   Overcast
7:55 PM 63.7 °F 44.4 °F 50% 30.07 in 10.0 mi SSE 16.1 mph - N/A   Scattered Clouds
8:55 PM 63.7 °F 47.1 °F 55% 30.06 in 10.0 mi SSE 20.7 mph 27.6 mph N/A   Scattered Clouds
9:55 PM 62.8 °F 47.5 °F 57% 30.06 in 10.0 mi SSE 21.9 mph 28.8 mph N/A   Partly Cloudy
10:55 PM 62.8 °F 48.2 °F 59% 30.07 in 10.0 mi South 16.1 mph 28.8 mph N/A   Scattered Clouds
11:55 PM 62.4 °F 48.6 °F 60% 30.07 in 10.0 mi South 18.4 mph 27.6 mph N/A   Overcast